Weather History for Eureka, NU

Change the Weather History Date:

Saturday, January 5, 2013

  Actual Average Record
Temperature  
Mean Temperature -32 °F -  
Max Temperature -27 °F -28 °F -7 °F (2009)
Min Temperature -36 °F -41 °F -52 °F (2008)
Degree Days  
Heating Degree Days 96    
Moisture  
Dew Point -40 °F    
Average Humidity 62    
Maximum Humidity 68    
Minimum Humidity 44    
Precipitation  
Precipitation 0.00 in 0.00 in - ()
Sea Level Pressure  
Sea Level Pressure 29.35 in    
Wind  
Wind Speed 3 mph ()    
Max Wind Speed 10 mph    
Max Gust Speed -    
Visibility 12.9 miles    
Events Snow    
Averages and records for this station are not official NWS values.
T = Trace of Precipitation, MM = Missing Value Source: Averaged Metar Reports

Daily Weather History Graph

Daily Weather History Graph

Search for Another Location

Airport:

Trip Planner

Search our weather history database for the weather conditions in past years. The results will help you decide how hot, cold, wet, or windy it might be!

Date:

Astronomy

Dec. 31, 1969 Rise Set
Actual Time Sun does not rise Sun does not rise
Civil Twilight Sun does not rise Sun does not rise
Nautical Twilight 11:16 AM CST 12:21 PM CST
Astronomical Twilight 7:30 AM CST 4:09 PM CST
Moon No Moon Rise No Moon Set
Length of Visible Light 0h 00m
Length of Day
0h 00m
Last Quarter, 44% of the Moon is Illuminated
Jan 5
Last Quarter
Jan 11
New
Jan 18
First Quarter
Jan 26
Full
Feb 3
Last Quarter

Hourly Weather History & Observations

Time (CST) Temp. Windchill Dew Point Humidity Pressure Visibility Wind Dir Wind Speed Gust Speed Precip Events Conditions
12:00 AM -26 °F - -35 °F 46% 29.39 in 15 mi SE 3.5 mph - - Snow Snow
12:00 AM -25.6 °F -37.1 °F -34.6 °F 63% 29.39 in 15.0 mi SE 3.5 mph - N/A   Clear
1:00 AM -31.0 °F - -40.0 °F 62% 29.40 in 15.0 mi Calm Calm - N/A   Clear
2:00 AM -29.2 °F - -38.2 °F 62% 29.39 in 15.0 mi Calm Calm - N/A   Clear
3:00 AM -32.8 °F - -41.8 °F 62% 29.39 in 15.0 mi Calm Calm - N/A   Clear
4:00 AM -34.6 °F - -41.8 °F 68% 29.37 in 5.0 mi Calm Calm - N/A   Ice Crystals
5:00 AM -34.6 °F - -41.8 °F 68% 29.37 in 5.0 mi ESE 2.3 mph - N/A   Ice Crystals
6:00 AM -33 °F - -41 °F 48% 29.34 in 15 mi SE 4.6 mph - - Snow Snow
6:00 AM -32.8 °F -48.2 °F -40.0 °F 68% 29.34 in 15.0 mi SE 4.6 mph - N/A   Clear
7:00 AM -31.0 °F - -40.0 °F 62% 29.32 in 15.0 mi ENE 2.3 mph - N/A   Clear
9:00 AM -32.8 °F -45.3 °F -40.0 °F 68% 29.30 in 15.0 mi SE 3.5 mph - N/A   Clear
10:00 AM -32.8 °F - -40.0 °F 68% 29.29 in 15.0 mi ESE 2.3 mph - N/A   Clear
11:00 AM -36.4 °F - -43.6 °F 67% 29.29 in 15.0 mi ENE 2.3 mph - N/A   Clear
12:00 PM -34 °F - -43 °F 44% 29.28 in 5 mi ESE 3.5 mph - - Snow Snow
12:00 PM -32.8 °F -45.3 °F -41.8 °F 62% 29.28 in 5.0 mi East 3.5 mph - N/A   Ice Crystals
1:00 PM -32.8 °F -45.3 °F -40.0 °F 68% 29.29 in 10.0 mi ESE 3.5 mph - N/A   Clear
2:00 PM -31.0 °F -46.1 °F -40.0 °F 62% 29.30 in 15.0 mi ESE 4.6 mph - N/A   Clear
3:00 PM -34.6 °F -54.6 °F -45.4 °F 55% 29.32 in 8.0 mi ESE 6.9 mph - N/A   Clear
4:00 PM -34.6 °F -50.3 °F -41.8 °F 68% 29.34 in 15.0 mi ESE 4.6 mph - N/A   Clear
5:00 PM -32.8 °F -52.4 °F -40.0 °F 68% 29.35 in 15.0 mi SE 6.9 mph - N/A   Clear
6:00 PM -29 °F - -37 °F 49% 29.36 in 15 mi SE 9.2 mph - - Snow Snow
6:00 PM -29.2 °F -51.2 °F -36.4 °F 68% 29.36 in 15.0 mi SE 9.2 mph - N/A   Clear
7:00 PM -27.4 °F -50.3 °F -36.4 °F 62% 29.38 in 15.0 mi SE 10.4 mph - N/A   Clear
8:00 PM -29.2 °F -51.2 °F -36.4 °F 68% 29.42 in 15.0 mi SE 9.2 mph - N/A   Clear
9:00 PM -29.2 °F -49.7 °F -36.4 °F 68% 29.45 in 15.0 mi SE 8.1 mph - N/A   Clear